Location: Sobotiste
(48.7170°N, 17.4000°E)
Time: 10:03:23
(UTC+02:00)

YUBILEINY - Pass Details

Date: 15 March 2026
Orbit: 1477 x 1509 km, 82.5° (Epoch: 17 April)

Event Time Altitude Azimuth Distance (km) Brightness Sun altitude
Rises 19:01:27 0° 259° (WSW) 4,636 ? -11.6°
Reaches altitude 10° 19:06:16 10° 282° (WNW) 3,653 ? -12.4°
Maximum altitude 19:10:46 15° 313° (NW) 3,291 ? -13.2°
Drops below altitude 10° 19:15:16 10° 345° (NNW) 3,648 ? -13.9°
Sets 19:20:08 0° 8° (N) 4,625 ? -14.7°
